Regional Weather Roundup
Issued by NWS

Home | Current Version | Previous Version | Text Only | Print | Product List | Glossary Off
Versions: 1 2 3 4 5 6 7 8 9 10 11 12 13 14 15 16 17 18 19 20 21 22 23 24 25 26 27 28 29 30 31 32 33 34 35 36 37 38 39 40 41 42 43 44 45 46 47 48 49 50

000
ASUS43 KMPX 281401
RWRMN
WEATHER ROUNDUP FOR MINNESOTA
NATIONAL WEATHER SERVICE TWIN CITIES/CHANHASSEN MN
800 AM CST SAT FEB 28 2015


NOTE: "FAIR" INDICATES FEW OR NO CLOUDS BELOW 12,000 FEET WITH NO
SIGNIFICANT WEATHER AND/OR OBSTRUCTIONS TO VISIBILITY. N/A MEANS
CURRENT SKY AND/OR WEATHER CONDITIONS ARE NOT AVAILABLE.

MNZ060>063-068>070-281500-
   Twin Cities Metro

CITY           SKY/WX    TMP DP  RH WIND       PRES   REMARKS
TWIN CITIES    MOSUNNY   -1  -6  79 SE6       30.53R WCI -13
ST PAUL        SUNNY      0  -4  83 SE7       30.56R WCI -13
CRYSTAL        SUNNY      3  -3  76 S9        30.50S WCI -12
BLAINE         SUNNY      3   0  85 S7        30.50R WCI  -9
LAKEVILLE      MOSUNNY   -2  -6  84 S5        30.52R WCI -12
EDEN PRAIRIE   SUNNY      1  -4  79 S7        30.50S WCI -12
SOUTH ST PAUL  SUNNY      0  -5  79 CALM      30.54R
LAKE ELMO      FAIR       1  -4  78 S7        30.54R WCI -11
$$
MNZ001>005-007-008-013>017-022>024-027-028-281500-
   Northwest Minnesota

CITY           SKY/WX    TMP DP  RH WIND       PRES   REMARKS
BEMIDJI        PTCLDY     0  -4  80 S7        30.26S WCI -13
HALLOCK        CLOUDY     5   0  78 S18       30.19F WCI -15
ROSEAU         MOCLDY     3  -2  78 S10       30.20F WCI -12
WARROAD        PTCLDY     3  -2  78 S7        30.21S WCI  -9
THIEF RVR FALL MOCLDY     3  -4  72 S10       30.21S WCI -12
CROOKSTON      PTCLDY     9   1  72 S20       30.24S WCI -11
FOSSTON        MOCLDY     3  -2  78 S12       30.24S WCI -13
DETROIT LAKES  FAIR       5   0  78 S10       30.27S WCI -10
MOORHEAD       MOCLDY     7   1  78 S16       30.27S WCI -11
PARK RAPIDS    FAIR      -1  -6  79 S8        30.28S WCI -15
MAHNOMEN       FAIR       7  -2  69 S13       30.25R WCI -10
$$
MNZ006-009>011-018-025>026-281500-
   North Central Minnesota

CITY           SKY/WX    TMP DP  RH WIND       PRES   REMARKS
BAUDETTE       MOCLDY    -1  -7  75 S7        30.22F WCI -14
FLAG ISLAND    MOCLDY    -4  -9  77 SE6       30.22S WCI -16
INTL FALLS     PTCLDY     1  -6  72 VRB5      30.27F WCI  -9
WASKISH        MOCLDY     3   0  85 S7        30.25S WCI  -9
BIG FORK       MOCLDY     3  -2  78 S8        30.30S WCI -10
LONGVILLE      FAIR      -4  -8  84 SE5       30.33S WCI -15
GRAND RAPIDS   PTCLDY    -2  -6  84 S10       30.32R WCI -19
CRANE LAKE     MOCLDY     1  -4  78 S5        30.35S WCI  -8
ORR            PTCLDY     0  -8  71 CALM      30.29S
COOK           PTCLDY     3  -2  78 S5        30.32F WCI  -6
WALKER         FAIR       1  -4  78 S8        30.29S WCI -12
$$
MNZ012-019>021-037-281500-
   Northeast Minnesota

CITY           SKY/WX    TMP DP  RH WIND       PRES   REMARKS
DULUTH         MOSUNNY    0  -5  79 SW10      30.38S WCI -16
ELY            PTSUNNY   -8 -11  84 S3        30.34F
HIBBING        PTCLDY   -15 -23  67 CALM      30.35F
EVELETH        MOSUNNY  -17 -26  63 NE3       30.36F
DULUTH HARBOR  MOSUNNY    0  -6  78 CALM      30.48S
TWO HARBORS    MOSUNNY    0  -8  71 SW3       30.40S
SILVER BAY     MOSUNNY   -8 -17  65 CALM      30.40S
GRAND MARAIS     N/A     11  -2  56 W5        30.45S WCI   3
G MARAIS ARPRT MOSUNNY    1  -9  60 S3        30.33R
$$
MNZ029>031-032-039>041-046>048-054>057-064-281500-
   West Central Minnesota

CITY           SKY/WX    TMP DP  RH WIND       PRES   REMARKS
FERGUS FALLS   MOCLDY     3  -4  72 S15       30.34S WCI -15
WHEATON        PTCLDY     3  -2  78 SE15      30.32F WCI -15
MORRIS         PTCLDY     1  -2  85 SE12      30.33S WCI -15
ALEXANDRIA     MOCLDY     4  -3  73 S13       30.33S WCI -13
ELBOW LAKE     FAIR       2  -3  77 S16       30.31S WCI -17
WADENA         MOCLDY     1  -4  78 S7        30.31R WCI -11
APPLETON       PTCLDY     5  -2  72 S12       30.37S WCI -11
BENSON         PTCLDY     3  -2  78 S12       30.37S WCI -13
ORTONVILLE       N/A      1  -6  71 SE6       30.33S WCI -10
MADISON        PTCLDY     9   0  66 S10       30.36S WCI  -6
WILLMAR        FAIR       1  -6  71 S9        30.41S WCI -14
$$
MNZ033>034-036-042>043-049>051-058-059-281500-
   Central Minnesota

CITY           SKY/WX    TMP DP  RH WIND       PRES   REMARKS
ST CLOUD       CLEAR      1  -4  79 S12       30.44S WCI -16
SAUK CENTRE    FAIR       1  -4  79 S12       30.38R WCI -15
PAYNESVILLE    PTCLDY    -1  -6  81 SE10      30.41S WCI -18
AITKIN         PTCLDY     3  -4  72 S9        30.36S WCI -11
PINE RIVER     PTCLDY    -2  -6  84 SE6       30.36S WCI -14
BRAINERD       PTCLDY     2  -4  76 S12       30.37S WCI -15
STAPLES        PTCLDY     1  -2  85 S12       30.33S WCI -15
LONG PRAIRIE   FAIR       3  -2  78 S10       30.37R WCI -12
LITTLE FALLS   PTCLDY     1  -4  78 SE9       30.40F WCI -14
LITCHFIELD     CLEAR      0  -4  85 CALM      30.44S
MAPLE LAKE     CLEAR      2  -2  81 S8        30.47R WCI -11
$$
MNZ037-044-045-052-053-281500-
   East Central Minnesota

CITY           SKY/WX    TMP DP  RH WIND       PRES   REMARKS
PRINCETON      SUNNY      1  -2  85 S7        30.45S WCI -11
MORA           MOSUNNY    0  -4  85 S6        30.47S WCI -12
RUSH CITY      MOSUNNY   -1  -5  85 S8        30.49S WCI -16
MOOSE LAKE     MOSUNNY    0  -4  85 CALM      30.42S
HINCKLEY       FAIR       0  -4  85 S7        30.46S WCI -13
CLOQUET        FAIR      -2  -8  78 S6        30.39S WCI -14
MCGREGOR       PTCLDY     3   0  85 S9        30.39R WCI -11
$$
MNZ071>073-080-081-089-090-097-098-281500-
   Southwest Minnesota

CITY           SKY/WX    TMP DP  RH WIND       PRES   REMARKS
MONTEVIDEO     PTCLDY     3  -2  78 SW8       30.40R WCI -10
GRANITE FALLS  CLEAR      1  -4  77 S10       30.42R WCI -14
CANBY          CLEAR      8  -1  67 S14       30.36S WCI  -8
MARSHALL       CLEAR      7  -4  61 S14G20    30.39S WCI -10
REDWOOD FALLS  CLEAR     -2  -8  76 S9        30.44R WCI -18
OLIVIA         PTCLDY     0  -6  78 S8        30.43R WCI -15
PIPESTONE      PTCLDY     0  -4  85 S8        30.34S WCI -15
WINDOM         PTCLDY     1  -6  71 S8        30.41S WCI -12
WORTHINGTON    PTCLDY    21 -11  23 S12       30.41R WCI   9
JACKSON        MOCLDY     1  -6  71 S10       30.43S WCI -14
TRACY          CLEAR      5  -3  70 S14       30.38S WCI -12
SLAYTON        PTCLDY     3  -5  69 S10       30.37S WCI -12
$$
MNZ065>067-074>077-082>085-091>093-281500-
   South Central Minnesota

CITY           SKY/WX    TMP DP  RH WIND       PRES   REMARKS
MANKATO        MOSUNNY   -2  -9  71 S10       30.49R WCI -19
NEW ULM        CLEAR     -2  -9  71 S12       30.46S WCI -20
ST JAMES       MOSUNNY    0  -8  71 S10       30.48R WCI -17
FAIRMONT       MOSUNNY   -4  -9  77 S13       30.45S WCI -23
GLENCOE        SUNNY      1  -3  81 S6        30.48R WCI -10
FARIBAULT      MOSUNNY   -2  -8  78 S5        30.51S WCI -12
OWATONNA       PTSUNNY    0  -8  71 S13       30.50S WCI -18
WASECA         PTSUNNY   -4  -8  84 S3        30.51F
ALBERT LEA     MOSUNNY   -8 -11  84 S5        30.50S WCI -19
$$
MNZ078>079-086>088-094>096-281500-
   Southeast Minnesota

CITY           SKY/WX    TMP DP  RH WIND       PRES   REMARKS
ROCHESTER      PTSUNNY   -9 -14  78 S10       30.51F WCI -27
RED WING       MOSUNNY    0  -6  78 SE3       30.57R
STANTON        MOSUNNY    1  -6  73 S10       30.52R WCI -15
DODGE CENTER   PTSUNNY   -4  -8  84 S10       30.49S WCI -21
WINONA         MOSUNNY   -6  -9  84 CALM      30.63S
AUSTIN         MOSUNNY   -8 -11  84 S6        30.52S WCI -21
PRESTON        PTSUNNY   -7 -11  82 S8        30.54S WCI -23
$$
ABBREVIATIONS USED IN REMARKS
   TC - TEMPERATURES IN CELSIUS
  WCI - WIND CHILL INDEX
   HX - HEAT INDEX
  VSB - VISIBILITY
$$


USA.gov is the U.S. government's official web portal to all federal, state and local government web resources and services.